| time (UTC) | temp C | wind direction | speed KPH | gust KPH | rain 1hr cm | rain 24hr cm | rain mn cm | humidity % | barometer mb |
| 20260901151544 | 13 | 0 | 3.2 | 6.4 | 0.00 | 0.00 | 0.00 | 57 | 1012.6 |
| 20260901151040 | 13 | 0 | 3.2 | 6.4 | 0.00 | 0.00 | 0.00 | 57 | 1012.5 |
| 20260901150545 | 13 | 0 | 1.6 | 4.8 | 0.00 | 0.00 | 0.00 | 55 | 1012.6 |
| 20260901150040 | 13 | 0 | 1.6 | 4.8 | 0.00 | 0.00 | 0.00 | 55 | 1012.5 |
| 20260901145537 | 12 | 0 | 3.2 | 4.8 | 0.00 | 0.00 | 0.00 | 56 | 1012.5 |
| 20260901144540 | 12 | 0 | 1.6 | 6.4 | 0.00 | 0.00 | 0.00 | 59 | 1012.4 |
| 20260901144040 | 12 | 0 | 1.6 | 4.8 | 0.00 | 0.00 | 0.00 | 65 | 1012.2 |
| 20260901143538 | 12 | 0 | 1.6 | 4.8 | 0.00 | 0.00 | 0.00 | 66 | 1012.1 |
| 20260901143037 | 11 | 0 | 1.6 | 4.8 | 0.00 | 0.00 | 0.00 | 64 | 1012.2 |
| 20260901142535 | 11 | 0 | 0.0 | 0.0 | 0.00 | 0.00 | 0.00 | 64 | 1012.1 |
| 20260901142031 | 10 | 0 | 0.0 | 0.0 | 0.00 | 0.00 | 0.00 | 71 | 1012.1 |
| 20260901141532 | 9 | 310 | 0.0 | 0.0 | 0.00 | 0.00 | 0.00 | 73 | 1012.2 |
| 20260901140533 | 8 | 309 | 0.0 | 0.0 | 0.00 | 0.00 | 0.00 | 70 | 1012.4 |
| 20260901135034 | 8 | 309 | 0.0 | 0.0 | 0.00 | 0.00 | 0.00 | 68 | 1012.2 |
| 20260901134532 | 8 | 309 | 0.0 | 0.0 | 0.00 | 0.00 | 0.00 | 69 | 1012.0 |
| 20260901134032 | 8 | 309 | 0.0 | 0.0 | 0.00 | 0.00 | 0.00 | 68 | 1011.9 |
| 20260901133030 | 8 | 309 | 0.0 | 0.0 | 0.00 | 0.00 | 0.00 | 69 | 1011.8 |
| 20260901132531 | 8 | 309 | 0.0 | 0.0 | 0.00 | 0.00 | 0.00 | 71 | 1011.8 |
| 20260901132032 | 8 | 309 | 0.0 | 0.0 | 0.00 | 0.00 | 0.00 | 72 | 1011.9 |
| 20260901131531 | 8 | 309 | 0.0 | 0.0 | 0.00 | 0.00 | 0.00 | 72 | 1011.8 |
| 20260901131032 | 8 | 309 | 0.0 | 0.0 | 0.00 | 0.00 | 0.00 | 70 | 1011.8 |
| 20260901130532 | 8 | 309 | 0.0 | 0.0 | 0.00 | 0.00 | 0.00 | 71 | 1011.7 |
| 20260901125531 | 8 | 309 | 0.0 | 0.0 | 0.00 | 0.00 | 0.00 | 70 | 1011.5 |
| 20260901125030 | 8 | 309 | 0.0 | 0.0 | 0.00 | 0.00 | 0.00 | 70 | 1011.6 |
| 20260901124532 | 8 | 309 | 0.0 | 0.0 | 0.00 | 0.00 | 0.00 | 71 | 1011.6 |
| 20260901124029 | 8 | 309 | 0.0 | 0.0 | 0.00 | 0.00 | 0.00 | 70 | 1011.6 |
| 20260901123525 | 8 | 309 | 0.0 | 0.0 | 0.00 | 0.00 | 0.00 | 70 | 1011.6 |
| 20260901123018 | 8 | 309 | 0.0 | 0.0 | 0.00 | 0.00 | 0.00 | 69 | 1011.5 |
| 20260901122518 | 8 | 309 | 0.0 | 0.0 | 0.00 | 0.00 | 0.00 | 69 | 1011.5 |
| 20260901122016 | 8 | 309 | 0.0 | 0.0 | 0.00 | 0.00 | 0.00 | 68 | 1011.6 |
| 20260901121515 | 8 | 309 | 0.0 | 0.0 | 0.00 | 0.00 | 0.00 | 68 | 1011.6 |
| 20260901121017 | 8 | 309 | 0.0 | 0.0 | 0.00 | 0.00 | 0.00 | 69 | 1011.6 |
| 20260901120515 | 8 | 309 | 0.0 | 0.0 | 0.00 | 0.00 | 0.00 | 68 | 1011.6 |
| 20260901120012 | 8 | 309 | 0.0 | 0.0 | 0.00 | 0.00 | 0.00 | 68 | 1011.7 |
| 20260901115512 | 8 | 309 | 0.0 | 0.0 | 0.00 | 0.00 | 0.00 | 67 | 1011.7 |
| 20260901115012 | 8 | 309 | 0.0 | 0.0 | 0.00 | 0.00 | 0.00 | 67 | 1011.6 |
| 20260901114510 | 8 | 309 | 0.0 | 0.0 | 0.00 | 0.00 | 0.00 | 67 | 1011.6 |
| 20260901114007 | 8 | 309 | 0.0 | 0.0 | 0.00 | 0.00 | 0.00 | 67 | 1011.6 |
| 20260901113509 | 8 | 309 | 0.0 | 0.0 | 0.00 | 0.00 | 0.00 | 67 | 1011.6 |
| 20260901113011 | 8 | 310 | 0.0 | 0.0 | 0.00 | 0.00 | 0.00 | 68 | 1011.6 |
| 20260901111504 | 8 | 310 | 0.0 | 0.0 | 0.00 | 0.00 | 0.00 | 67 | 1011.7 |
| 20260901111003 | 9 | 309 | 0.0 | 0.0 | 0.00 | 0.00 | 0.00 | 67 | 1011.6 |
| 20260901110502 | 9 | 309 | 0.0 | 0.0 | 0.00 | 0.00 | 0.00 | 66 | 1011.6 |
| 20260901110003 | 9 | 309 | 0.0 | 0.0 | 0.00 | 0.00 | 0.00 | 67 | 1011.5 |
| 20260901105504 | 9 | 309 | 0.0 | 0.0 | 0.00 | 0.00 | 0.00 | 67 | 1011.7 |
| 20260901105002 | 9 | 309 | 0.0 | 0.0 | 0.00 | 0.00 | 0.00 | 67 | 1011.6 |
| 20260901104504 | 9 | 310 | 0.0 | 0.0 | 0.00 | 0.00 | 0.00 | 67 | 1011.6 |
| 20260901103004 | 9 | 309 | 0.0 | 0.0 | 0.00 | 0.00 | 0.00 | 67 | 1011.5 |
| 20260901102005 | 9 | 309 | 1.6 | 4.8 | 0.00 | 0.00 | 0.00 | 68 | 1011.6 |
| 20260901101504 | 9 | 309 | 1.6 | 4.8 | 0.00 | 0.00 | 0.00 | 69 | 1011.6 |
| 20260901101003 | 9 | 292 | 0.0 | 0.0 | 0.00 | 0.00 | 0.00 | 70 | 1011.6 |
| 20260901100503 | 9 | 292 | 0.0 | 0.0 | 0.00 | 0.00 | 0.00 | 70 | 1011.7 |
| 20260901100004 | 9 | 292 | 0.0 | 0.0 | 0.00 | 0.00 | 0.00 | 69 | 1011.6 |
| 20260901095503 | 9 | 292 | 0.0 | 0.0 | 0.00 | 0.00 | 0.00 | 70 | 1011.7 |
| 20260901095002 | 9 | 293 | 0.0 | 0.0 | 0.00 | 0.00 | 0.00 | 69 | 1011.8 |
| 20260901094503 | 9 | 292 | 0.0 | 0.0 | 0.00 | 0.00 | 0.00 | 68 | 1011.8 |
| 20260901094002 | 10 | 293 | 0.0 | 0.0 | 0.00 | 0.00 | 0.00 | 70 | 1011.8 |
| 20260901093503 | 10 | 292 | 0.0 | 0.0 | 0.00 | 0.00 | 0.00 | 70 | 1011.8 |
| 20260901091503 | 10 | 291 | 0.0 | 0.0 | 0.00 | 0.00 | 0.00 | 68 | 1011.8 |
| 20260901091002 | 10 | 291 | 0.0 | 0.0 | 0.00 | 0.00 | 0.00 | 67 | 1011.8 |
| 20260901090506 | 10 | 291 | 0.0 | 0.0 | 0.00 | 0.00 | 0.00 | 67 | 1011.7 |
| 20260901090006 | 11 | 291 | 0.0 | 0.0 | 0.00 | 0.00 | 0.00 | 70 | 1011.7 |
| 20260901085506 | 11 | 291 | 0.0 | 0.0 | 0.00 | 0.00 | 0.00 | 69 | 1011.7 |
| 20260901085004 | 10 | 291 | 0.0 | 0.0 | 0.00 | 0.00 | 0.00 | 67 | 1011.8 |
| 20260901084506 | 10 | 291 | 0.0 | 0.0 | 0.00 | 0.00 | 0.00 | 66 | 1011.9 |
| 20260901084004 | 10 | 290 | 0.0 | 3.2 | 0.00 | 0.00 | 0.00 | 64 | 1011.9 |
| 20260901083503 | 11 | 290 | 1.6 | 4.8 | 0.00 | 0.00 | 0.00 | 64 | 1011.8 |
| 20260901082507 | 11 | 282 | 0.0 | 1.6 | 0.00 | 0.00 | 0.00 | 61 | 1011.9 |
| 20260901082005 | 11 | 283 | 0.0 | 1.6 | 0.00 | 0.00 | 0.00 | 60 | 1011.9 |
| 20260901081505 | 11 | 283 | 0.0 | 0.0 | 0.00 | 0.00 | 0.00 | 61 | 1011.9 |
| 20260901080503 | 11 | 283 | 0.0 | 1.6 | 0.00 | 0.00 | 0.00 | 61 | 1012.0 |
| 20260901075958 | 11 | 283 | 0.0 | 3.2 | 0.00 | 0.00 | 0.00 | 62 | 1012.0 |
| 20260901075453 | 11 | 283 | 1.6 | 3.2 | 0.00 | 0.00 | 0.00 | 63 | 1011.9 |
| 20260901074449 | 11 | 283 | 0.0 | 1.6 | 0.00 | 0.00 | 0.00 | 64 | 1012.0 |
| 20260901073450 | 11 | 283 | 0.0 | 1.6 | 0.00 | 0.00 | 0.00 | 63 | 1012.1 |
| 20260901072950 | 12 | 284 | 0.0 | 0.0 | 0.00 | 0.00 | 0.00 | 64 | 1012.0 |
| 20260901072445 | 12 | 284 | 0.0 | 1.6 | 0.00 | 0.00 | 0.00 | 64 | 1012.0 |
| 20260901071948 | 12 | 284 | 0.0 | 1.6 | 0.00 | 0.00 | 0.00 | 64 | 1012.0 |
| 20260901071443 | 12 | 284 | 0.0 | 3.2 | 0.00 | 0.00 | 0.00 | 65 | 1012.0 |
| 20260901070942 | 12 | 284 | 0.0 | 3.2 | 0.00 | 0.00 | 0.00 | 66 | 1012.1 |
| 20260901070440 | 12 | 284 | 0.0 | 0.0 | 0.00 | 0.00 | 0.00 | 66 | 1012.1 |
| 20260901065941 | 12 | 284 | 0.0 | 0.0 | 0.00 | 0.00 | 0.00 | 64 | 1012.1 |
| 20260901065440 | 12 | 284 | 0.0 | 0.0 | 0.00 | 0.00 | 0.00 | 63 | 1012.0 |
| 20260901064941 | 12 | 284 | 0.0 | 0.0 | 0.00 | 0.00 | 0.00 | 61 | 1012.0 |
| 20260901064436 | 12 | 284 | 0.0 | 3.2 | 0.00 | 0.00 | 0.00 | 60 | 1012.0 |
| 20260901063935 | 12 | 284 | 0.0 | 3.2 | 0.00 | 0.00 | 0.00 | 61 | 1012.0 |
| 20260901063431 | 11 | 16 | 0.0 | 0.0 | 0.00 | 0.00 | 0.00 | 76 | 1012.0 |
| 20260901062932 | 11 | 16 | 0.0 | 0.0 | 0.00 | 0.00 | 0.00 | 76 | 1012.0 |
| 20260901062430 | 11 | 16 | 0.0 | 0.0 | 0.00 | 0.00 | 0.00 | 77 | 1012.1 |
| 20260901061430 | 11 | 16 | 0.0 | 0.0 | 0.00 | 0.00 | 0.00 | 77 | 1012.5 |
| 20260901060424 | 12 | 16 | 0.0 | 0.0 | 0.00 | 0.00 | 0.00 | 79 | 1012.4 |
| 20260901055916 | 12 | 16 | 0.0 | 0.0 | 0.00 | 0.00 | 0.00 | 76 | 1012.5 |
| 20260901054904 | 12 | 16 | 0.0 | 0.0 | 0.00 | 0.00 | 0.00 | 73 | 1012.7 |
| 20260901054404 | 12 | 16 | 0.0 | 0.0 | 0.00 | 0.00 | 0.00 | 72 | 1012.8 |
| 20260901053905 | 12 | 16 | 0.0 | 0.0 | 0.00 | 0.00 | 0.00 | 71 | 1012.7 |
| 20260901052907 | 13 | 16 | 0.0 | 0.0 | 0.00 | 0.00 | 0.00 | 70 | 1012.7 |
| 20260901052403 | 13 | 16 | 0.0 | 0.0 | 0.00 | 0.00 | 0.00 | 71 | 1012.7 |
| 20260901051404 | 13 | 16 | 0.0 | 0.0 | 0.00 | 0.00 | 0.00 | 69 | 1012.8 |
| 20260901050403 | 13 | 16 | 0.0 | 0.0 | 0.00 | 0.00 | 0.00 | 65 | 1012.7 |
| 20260901045902 | 13 | 16 | 0.0 | 0.0 | 0.00 | 0.00 | 0.00 | 66 | 1012.8 |
| 20260901045405 | 13 | 16 | 0.0 | 0.0 | 0.00 | 0.00 | 0.00 | 65 | 1012.9 |
| 20260901044905 | 13 | 16 | 0.0 | 0.0 | 0.00 | 0.00 | 0.00 | 68 | 1013.0 |
| 20260901044407 | 14 | 16 | 0.0 | 0.0 | 0.00 | 0.00 | 0.00 | 69 | 1013.0 |
| 20260901043904 | 14 | 16 | 0.0 | 0.0 | 0.00 | 0.00 | 0.00 | 68 | 1012.9 |
| 20260901043406 | 14 | 16 | 0.0 | 0.0 | 0.00 | 0.00 | 0.00 | 72 | 1013.0 |
| 20260901042904 | 14 | 16 | 0.0 | 0.0 | 0.00 | 0.00 | 0.00 | 73 | 1013.0 |
| 20260901042404 | 15 | 16 | 0.0 | 0.0 | 0.00 | 0.00 | 0.00 | 75 | 1013.1 |
| 20260901041905 | 15 | 16 | 0.0 | 0.0 | 0.00 | 0.00 | 0.00 | 75 | 1013.1 |
| 20260901041404 | 15 | 16 | 0.0 | 0.0 | 0.00 | 0.00 | 0.00 | 74 | 1013.1 |
| 20260901040905 | 15 | 17 | 0.0 | 0.0 | 0.00 | 0.00 | 0.00 | 74 | 1013.1 |
| 20260901040406 | 15 | 17 | 0.0 | 0.0 | 0.00 | 0.00 | 0.00 | 72 | 1013.1 |
| 20260901035903 | 15 | 17 | 0.0 | 0.0 | 0.00 | 0.00 | 0.00 | 71 | 1013.1 |
| 20260901035403 | 16 | 17 | 0.0 | 0.0 | 0.00 | 0.00 | 0.00 | 69 | 1013.1 |
| 20260901034906 | 16 | 17 | 0.0 | 0.0 | 0.00 | 0.00 | 0.00 | 68 | 1013.0 |
| 20260901034407 | 16 | 17 | 0.0 | 0.0 | 0.00 | 0.00 | 0.00 | 69 | 1013.0 |
| 20260901033905 | 17 | 17 | 0.0 | 0.0 | 0.00 | 0.00 | 0.00 | 68 | 1012.9 |
| 20260901033405 | 17 | 17 | 0.0 | 0.0 | 0.00 | 0.00 | 0.00 | 66 | 1012.9 |
| 20260901032905 | 17 | 17 | 0.0 | 0.0 | 0.00 | 0.00 | 0.00 | 63 | 1012.9 |
| 20260901032405 | 17 | 16 | 0.0 | 0.0 | 0.00 | 0.00 | 0.00 | 64 | 1013.0 |
| 20260901031903 | 17 | 17 | 0.0 | 0.0 | 0.00 | 0.00 | 0.00 | 60 | 1012.9 |
| 20260901031404 | 18 | 16 | 0.0 | 0.0 | 0.00 | 0.00 | 0.00 | 60 | 1012.9 |
| 20260901030903 | 18 | 17 | 0.0 | 0.0 | 0.00 | 0.00 | 0.00 | 59 | 1012.8 |
| 20260901030403 | 18 | 17 | 0.0 | 0.0 | 0.00 | 0.00 | 0.00 | 59 | 1012.9 |
| 20260901025902 | 18 | 17 | 0.0 | 0.0 | 0.00 | 0.00 | 0.00 | 59 | 1012.8 |
| 20260901024903 | 19 | 16 | 0.0 | 0.0 | 0.00 | 0.00 | 0.00 | 53 | 1012.7 |
| 20260901024403 | 19 | 17 | 0.0 | 0.0 | 0.00 | 0.00 | 0.00 | 53 | 1012.7 |
| 20260901023903 | 19 | 16 | 0.0 | 0.0 | 0.00 | 0.00 | 0.00 | 49 | 1012.7 |
| 20260901022903 | 20 | 16 | 0.0 | 0.0 | 0.00 | 0.00 | 0.00 | 46 | 1012.5 |
| 20260901022403 | 20 | 16 | 0.0 | 1.6 | 0.00 | 0.00 | 0.00 | 46 | 1012.5 |
| 20260901021907 | 20 | 16 | 0.0 | 1.6 | 0.00 | 0.00 | 0.00 | 45 | 1012.5 |
| 20260901020909 | 21 | 17 | 0.0 | 1.6 | 0.00 | 0.00 | 0.00 | 43 | 1012.5 |
| 20260901015405 | 21 | 51 | 0.0 | 3.2 | 0.00 | 0.00 | 0.00 | 45 | 1012.6 |
| 20260901014904 | 21 | 226 | 0.0 | 0.0 | 0.00 | 0.00 | 0.00 | 40 | 1012.6 |
| 20260901014402 | 21 | 226 | 0.0 | 0.0 | 0.00 | 0.00 | 0.00 | 40 | 1012.7 |
| 20260901013905 | 21 | 226 | 0.0 | 0.0 | 0.00 | 0.00 | 0.00 | 40 | 1012.8 |
| 20260901013402 | 22 | 226 | 0.0 | 0.0 | 0.00 | 0.00 | 0.00 | 39 | 1012.8 |
| 20260901012905 | 22 | 251 | 0.0 | 1.6 | 0.00 | 0.00 | 0.00 | 39 | 1012.8 |
| 20260901010903 | 23 | 249 | 1.6 | 8.0 | 0.00 | 0.00 | 0.00 | 37 | 1012.9 |
| 20260901010401 | 23 | 254 | 1.6 | 8.0 | 0.00 | 0.00 | 0.00 | 37 | 1012.8 |
| 20260901005900 | 23 | 226 | 1.6 | 8.0 | 0.00 | 0.00 | 0.00 | 38 | 1012.8 |
| 20260901005400 | 23 | 174 | 1.6 | 8.0 | 0.00 | 0.00 | 0.00 | 36 | 1013.0 |
| 20260901004356 | 23 | 218 | 1.6 | 8.0 | 0.00 | 0.00 | 0.00 | 35 | 1013.0 |
| 20260901003855 | 23 | 147 | 0.0 | 6.4 | 0.00 | 0.00 | 0.00 | 35 | 1013.0 |
| 20260901003354 | 23 | 199 | 0.0 | 6.4 | 0.00 | 0.00 | 0.00 | 35 | 1013.1 |
| 20260901002854 | 24 | 227 | 0.0 | 6.4 | 0.00 | 0.00 | 0.00 | 36 | 1013.2 |
| 20260901002358 | 24 | 155 | 1.6 | 8.0 | 0.00 | 0.00 | 0.00 | 35 | 1013.2 |
| 20260901001852 | 25 | 225 | 1.6 | 8.0 | 0.00 | 0.00 | 0.00 | 34 | 1013.3 |
| 20260901001349 | 25 | 192 | 1.6 | 4.8 | 0.00 | 0.00 | 0.00 | 34 | 1013.4 |
| 20260901000850 | 24 | 179 | 1.6 | 8.0 | 0.00 | 0.00 | 0.00 | 35 | 1013.4 |
| 20260901000347 | 24 | 198 | 1.6 | 8.0 | 0.00 | 0.00 | 0.00 | 35 | 1013.4 |
| 20260831235848 | 24 | 232 | 1.6 | 6.4 | 0.00 | 0.00 | 0.00 | 37 | 1013.6 |
| 20260831235346 | 24 | 161 | 1.6 | 6.4 | 0.00 | 0.00 | 0.00 | 35 | 1013.6 |
| 20260831234345 | 24 | 278 | 1.6 | 6.4 | 0.00 | 0.00 | 0.00 | 35 | 1013.7 |
| 20260831233847 | 24 | 236 | 1.6 | 6.4 | 0.00 | 0.00 | 0.00 | 36 | 1013.7 |
| 20260831233345 | 25 | 202 | 1.6 | 4.8 | 0.00 | 0.00 | 0.00 | 35 | 1013.7 |
| 20260831232840 | 25 | 220 | 1.6 | 3.2 | 0.00 | 0.00 | 0.00 | 35 | 1013.8 |
| 20260831232344 | 25 | 272 | 1.6 | 4.8 | 0.00 | 0.00 | 0.00 | 36 | 1013.8 |
| 20260831231842 | 25 | 232 | 1.6 | 4.8 | 0.00 | 0.00 | 0.00 | 34 | 1013.8 |
| 20260831231340 | 25 | 46 | 1.6 | 9.7 | 0.00 | 0.00 | 0.00 | 34 | 1013.8 |
| 20260831230842 | 26 | 138 | 1.6 | 9.7 | 0.00 | 0.00 | 0.00 | 32 | 1013.9 |
| 20260831230345 | 26 | 270 | 1.6 | 6.4 | 0.00 | 0.00 | 0.00 | 32 | 1014.0 |
| 20260831225343 | 26 | 331 | 1.6 | 4.8 | 0.00 | 0.00 | 0.00 | 32 | 1014.0 |
| 20260831224341 | 26 | 174 | 1.6 | 6.4 | 0.00 | 0.00 | 0.00 | 32 | 1014.1 |
| 20260831223840 | 26 | 229 | 1.6 | 6.4 | 0.00 | 0.00 | 0.00 | 33 | 1014.1 |
| 20260831223340 | 26 | 250 | 1.6 | 6.4 | 0.00 | 0.00 | 0.00 | 33 | 1014.1 |
| 20260831222837 | 25 | 238 | 1.6 | 9.7 | 0.00 | 0.00 | 0.00 | 35 | 1014.0 |
| 20260831222337 | 25 | 227 | 3.2 | 9.7 | 0.00 | 0.00 | 0.00 | 34 | 1014.1 |
| 20260831221837 | 25 | 215 | 3.2 | 8.0 | 0.00 | 0.00 | 0.00 | 35 | 1014.1 |
| 20260831221337 | 25 | 37 | 3.2 | 11.3 | 0.00 | 0.00 | 0.00 | 35 | 1014.2 |
| 20260831215833 | 24 | 72 | 3.2 | 9.7 | 0.00 | 0.00 | 0.00 | 40 | 1014.3 |
| 20260831214834 | 25 | 336 | 1.6 | 4.8 | 0.00 | 0.00 | 0.00 | 36 | 1014.5 |
| 20260831214333 | 25 | 75 | 1.6 | 4.8 | 0.00 | 0.00 | 0.00 | 38 | 1014.5 |
| 20260831213832 | 25 | 9 | 0.0 | 3.2 | 0.00 | 0.00 | 0.00 | 38 | 1014.6 |
| 20260831213334 | 25 | 222 | 0.0 | 3.2 | 0.00 | 0.00 | 0.00 | 37 | 1014.6 |
| 20260831212832 | 24 | 94 | 1.6 | 6.4 | 0.00 | 0.00 | 0.00 | 41 | 1014.9 |
| 20260831212333 | 23 | 57 | 4.8 | 11.3 | 0.00 | 0.00 | 0.00 | 40 | 1014.9 |
| 20260831211333 | 24 | 76 | 1.6 | 8.0 | 0.00 | 0.00 | 0.00 | 38 | 1015.1 |
| 20260831210832 | 24 | 309 | 1.6 | 6.4 | 0.00 | 0.00 | 0.00 | 37 | 1015.2 |
| 20260831210331 | 23 | 52 | 1.6 | 6.4 | 0.00 | 0.00 | 0.00 | 39 | 1015.3 |
| 20260831205834 | 23 | 30 | 3.2 | 8.0 | 0.00 | 0.00 | 0.00 | 42 | 1015.4 |
| 20260831205330 | 23 | 128 | 1.6 | 8.0 | 0.00 | 0.00 | 0.00 | 38 | 1015.4 |
| 20260831204832 | 24 | 333 | 1.6 | 4.8 | 0.00 | 0.00 | 0.00 | 37 | 1015.5 |
| 20260831204333 | 24 | 211 | 1.6 | 4.8 | 0.00 | 0.00 | 0.00 | 39 | 1015.6 |
| 20260831203831 | 23 | 76 | 3.2 | 11.3 | 0.00 | 0.00 | 0.00 | 38 | 1015.7 |
| 20260831203330 | 23 | 350 | 3.2 | 11.3 | 0.00 | 0.00 | 0.00 | 38 | 1015.9 |
| 20260831202831 | 24 | 190 | 1.6 | 9.7 | 0.00 | 0.00 | 0.00 | 38 | 1015.7 |
| 20260831202330 | 23 | 221 | 3.2 | 9.7 | 0.00 | 0.00 | 0.00 | 40 | 1015.9 |
| 20260831201832 | 22 | 87 | 3.2 | 6.4 | 0.00 | 0.00 | 0.00 | 41 | 1015.9 |
| 20260831201333 | 23 | 83 | 1.6 | 4.8 | 0.00 | 0.00 | 0.00 | 40 | 1016.0 |
| 20260831200832 | 23 | 37 | 1.6 | 4.8 | 0.00 | 0.00 | 0.00 | 41 | 1016.1 |
| 20260831200330 | 22 | 33 | 1.6 | 6.4 | 0.00 | 0.00 | 0.00 | 40 | 1016.1 |
| 20260831195330 | 22 | 86 | 3.2 | 6.4 | 0.00 | 0.00 | 0.00 | 42 | 1016.2 |
| 20260831194837 | 22 | 336 | 3.2 | 6.4 | 0.00 | 0.00 | 0.00 | 41 | 1016.2 |
| 20260831194331 | 22 | 56 | 3.2 | 6.4 | 0.00 | 0.00 | 0.00 | 43 | 1016.2 |
| 20260831193831 | 22 | 65 | 1.6 | 6.4 | 0.00 | 0.00 | 0.00 | 43 | 1016.3 |
| 20260831193330 | 22 | 40 | 1.6 | 4.8 | 0.00 | 0.00 | 0.00 | 42 | 1016.4 |
| 20260831192830 | 21 | 89 | 3.2 | 6.4 | 0.00 | 0.00 | 0.00 | 44 | 1016.5 |
| 20260831192330 | 21 | 86 | 3.2 | 6.4 | 0.00 | 0.00 | 0.00 | 43 | 1016.4 |
| 20260831191832 | 21 | 88 | 3.2 | 6.4 | 0.00 | 0.00 | 0.00 | 42 | 1016.6 |
| 20260831190831 | 21 | 98 | 3.2 | 9.7 | 0.00 | 0.00 | 0.00 | 44 | 1016.7 |
| 20260831190334 | 21 | 69 | 3.2 | 9.7 | 0.00 | 0.00 | 0.00 | 42 | 1016.8 |
| 20260831185330 | 21 | 109 | 1.6 | 6.4 | 0.00 | 0.00 | 0.00 | 41 | 1017.1 |
| 20260831184334 | 21 | 348 | 3.2 | 9.7 | 0.00 | 0.00 | 0.00 | 41 | 1017.1 |
| 20260831183836 | 21 | 69 | 3.2 | 12.9 | 0.00 | 0.00 | 0.00 | 40 | 1017.2 |
| 20260831183333 | 22 | 201 | 1.6 | 12.9 | 0.00 | 0.00 | 0.00 | 40 | 1017.4 |
| 20260831182833 | 21 | 248 | 1.6 | 8.0 | 0.00 | 0.00 | 0.00 | 42 | 1017.4 |
| 20260831182331 | 21 | 159 | 3.2 | 8.0 | 0.00 | 0.00 | 0.00 | 41 | 1017.5 |
| 20260831181331 | 21 | 154 | 1.6 | 8.0 | 0.00 | 0.00 | 0.00 | 44 | 1017.5 |
| 20260831180834 | 21 | 311 | 3.2 | 11.3 | 0.00 | 0.00 | 0.00 | 41 | 1017.5 |
| 20260831180331 | 21 | 202 | 1.6 | 11.3 | 0.00 | 0.00 | 0.00 | 41 | 1017.6 |
| 20260831175835 | 21 | 281 | 1.6 | 6.4 | 0.00 | 0.00 | 0.00 | 43 | 1017.6 |
| 20260831175331 | 20 | 164 | 3.2 | 6.4 | 0.00 | 0.00 | 0.00 | 42 | 1017.5 |
| 20260831174332 | 20 | 268 | 1.6 | 9.7 | 0.00 | 0.00 | 0.00 | 42 | 1017.6 |
| 20260831173331 | 20 | 227 | 1.6 | 6.4 | 0.00 | 0.00 | 0.00 | 45 | 1017.7 |
| 20260831172835 | 19 | 86 | 1.6 | 8.0 | 0.00 | 0.00 | 0.00 | 44 | 1017.7 |
| 20260831172334 | 19 | 275 | 1.6 | 8.0 | 0.00 | 0.00 | 0.00 | 43 | 1017.6 |
| 20260831171830 | 18 | 184 | 3.2 | 12.9 | 0.00 | 0.00 | 0.00 | 46 | 1017.7 |
| 20260831171330 | 18 | 153 | 3.2 | 12.9 | 0.00 | 0.00 | 0.00 | 45 | 1017.8 |
| 20260831170831 | 18 | 173 | 3.2 | 11.3 | 0.00 | 0.00 | 0.00 | 45 | 1017.7 |
| 20260831170333 | 18 | 222 | 3.2 | 11.3 | 0.00 | 0.00 | 0.00 | 46 | 1017.8 |
| 20260831165831 | 18 | 243 | 3.2 | 8.0 | 0.00 | 0.00 | 0.00 | 48 | 1018.0 |
| 20260831165330 | 18 | 234 | 1.6 | 8.0 | 0.00 | 0.00 | 0.00 | 48 | 1018.0 |
| 20260831164831 | 18 | 47 | 1.6 | 6.4 | 0.00 | 0.03 | 0.00 | 48 | 1018.0 |
| 20260831163832 | 17 | 213 | 1.6 | 6.4 | 0.00 | 0.03 | 0.00 | 51 | 1018.0 |
| 20260831163330 | 17 | 206 | 1.6 | 6.4 | 0.00 | 0.03 | 0.00 | 50 | 1018.0 |
| 20260831162332 | 17 | 215 | 0.0 | 4.8 | 0.00 | 0.03 | 0.00 | 52 | 1018.1 |
| 20260831161839 | 17 | 233 | 1.6 | 4.8 | 0.00 | 0.03 | 0.00 | 54 | 1018.1 |
| 20260831161335 | 16 | 275 | 1.6 | 4.8 | 0.00 | 0.03 | 0.00 | 53 | 1018.0 |
| 20260831160832 | 16 | 238 | 0.0 | 4.8 | 0.00 | 0.03 | 0.00 | 54 | 1018.1 |
| 20260831160330 | 16 | 273 | 0.0 | 4.8 | 0.00 | 0.03 | 0.00 | 55 | 1018.0 |
| 20260831155831 | 16 | 167 | 0.0 | 3.2 | 0.00 | 0.03 | 0.00 | 58 | 1018.1 |
| 20260831155331 | 15 | 217 | 1.6 | 4.8 | 0.00 | 0.03 | 0.00 | 58 | 1018.1 |
| 20260831154830 | 15 | 235 | 1.6 | 4.8 | 0.00 | 0.03 | 0.00 | 60 | 1018.1 |
| 20260831154331 | 15 | 233 | 0.0 | 3.2 | 0.00 | 0.05 | 0.00 | 60 | 1018.3 |
| 20260831153330 | 15 | 225 | 0.0 | 3.2 | 0.00 | 0.05 | 0.00 | 60 | 1018.4 |
| 20260831152832 | 15 | 351 | 0.0 | 1.6 | 0.00 | 0.05 | 0.00 | 61 | 1018.3 |
| 20260831152329 | 14 | 351 | 0.0 | 1.6 | 0.00 | 0.05 | 0.00 | 61 | 1018.3 |